sat.trackr.live / text

‹ back to catalog

AZERSPACE 2 (IS-38)

NORAD 43632 · 2018-074A

PAYLOAD ACTIVE UNKNOWN

§ Identity

Operator
Country
AZER
Launch date
2018-09-25
Launch site
FRGUI
Launch vehicle
Mass (kg)
RCS (m²)

Purposes: comms

External: N2YO · Heavens-Above · Gunter

§ Orbital elements

Epoch: 2026-09-20T01:44:23.371008Z

Period
1,436.13 min
Inclination
0.0203°
Eccentricity
0.0000842
Mean motion
1.00269236 rev/d
Perigee alt
35,783.8 km
Apogee alt
35,790.9 km
Semi-major
42,165.4 km
B*
0.0000e+0
RAAN
142.5333°
Arg perigee
49.7652°
Mean anomaly
237.8872°
Rev number
2,939

§ Raw data

AZERSPACE 2 (IS-38)1 43632U 18074A   26263.07249272  .00000000  00000+0  00000+0 0  99982 43632   0.0203 142.5333 0000842  49.7652 237.8872  1.00269236 29392

JSON: /api/v1/satellites/43632 · /tle

For live sub-satellite position, see the globe view (requires WebGL).

§ Visibility from observer

Set your observer location to see the next 7 days of passes ≥ 10°. The values pass through the URL so the page stays shareable.

No JS? Fill the form by hand. The geolocation button needs JavaScript.